Content
SEND FEEDBACK

Daily
Averages
Monthly
Summary
United States of America

YIGO, GUAM


Home > North America > United States > Guam
Elevation: 530 feet     Latitude: 13 32N     Longitude: 144 53E

WEATHER
 
SELECT A DAY
Number of Records: 215,513;   Date Range: 1/1/95 - 12/17/14
 
SHARE

PRINT THIS DATA

[ ← Previous Day ]
WEATHER ALMANAC - JANUARY 13, 2014
[ Next Day → ]
[ °C ]   °F
Weather ElementAverageHighLow
Temperature78.4 °F88 °F (11:54 am) (1:54 am)
Dewpoint70 °F75.2 °F (7:54 am) (7:00 pm)
Humidity75.5 %91 % (6:54 am)57 % (11:54 am)
Barometer29.85 in29.90 in (7:54 am)29.80 in (2:54 pm)
Wind Speed9.3 mph15 mph (1:54 pm)
Wind Gust19.6 mph (10:54 am)
Weather ElementAverage
Visibility10 mi
Wind DirectionENE (77.4 °)

Weather ElementTotal
Precipitation---
Heating Degree Days21 (Base 65)
Averaged from 23 records on January 13, 2014
WEATHER CONDITIONS BREAKOUT
WIND DIRECTION BREAKOUT
WEATHER BY HOUR - JANUARY 13, 2014
[ °C ]   °F
Local TimeTemperatureDewpointHumidityBarometerVisibilityWind DirectionWind SpeedGust SpeedPrecipitationEventsConditions
1:54 AM0.0 °F0.0 °F29.86 in10.0 miESE (110°)9.2 mph0.00 inPartly Cloudy
2:54 AM79.0 °F73.0 °F82 %29.83 in10.0 miESE (110°)6.9 mphPartly Cloudy
3:54 AM78.1 °F73.0 °F84 %29.83 in10.0 miEast (90°)4.6 mphPartly Cloudy
4:54 AM77.0 °F73.9 °F90 %29.83 in10.0 miENE (70°)3.5 mphClear
5:54 AM77.5 °F73.9 °F89 %29.84 in10.0 miEast (80°)5.8 mphPartly Cloudy
6:54 AM75.9 °F73.0 °F91 %29.87 in10.0 miEast (100°)3.5 mphClear
7:54 AM80.6 °F75.2 °F84 %29.90 in10.0 miENE (70°)5.8 mphMostly Cloudy
8:54 AM81.0 °F73.9 °F79 %29.90 in10.0 miEast (100°)8.1 mphClear
9:54 AM82.0 °F73.9 °F76 %29.90 in10.0 miEast (90°)12.7 mphPartly Cloudy
10:54 AM84.2 °F74.5 °F72 %29.89 in10.0 miEast (100°)11.5 mph19.6 mphClear
11:54 AM88.0 °F71.1 °F57 %29.86 in10.0 miENE (60°)11.5 mphScattered Clouds
12:54 PM88.0 °F72.0 °F59 %29.83 in10.0 miENE (70°)10.4 mphMostly Cloudy
1:54 PM88.0 °F71.1 °F57 %29.84 in10.0 miEast (80°)15.0 mphScattered Clouds
2:54 PM86.0 °F71.1 °F61 %29.80 in10.0 miENE (60°)12.7 mphMostly Cloudy
3:54 PM84.9 °F71.1 °F63 %29.81 in10.0 miENE (70°)11.5 mphScattered Clouds
4:54 PM84.9 °F72.0 °F65 %29.81 in10.0 miENE (60°)11.5 mphMostly Cloudy
5:54 PM82.0 °F73.9 °F76 %29.83 in10.0 miENE (60°)10.4 mphPartly Cloudy
6:54 PM81.0 °F75.0 °F82 %29.83 in10.0 miENE (60°)8.1 mphPartly Cloudy
7:54 PM81.0 °F73.9 °F79 %29.87 in10.0 miENE (70°)9.2 mphPartly Cloudy
8:54 PM81.0 °F73.9 °F79 %29.86 in10.0 miENE (70°)10.4 mphPartly Cloudy
9:54 PM81.0 °F73.9 °F79 %29.87 in10.0 miENE (70°)10.4 mphPartly Cloudy
10:54 PM81.0 °F73.9 °F79 %29.87 in10.0 miENE (60°)10.4 mphPartly Cloudy
11:54 PM80.1 °F73.0 °F79 %29.86 in10.0 miENE (70°)10.4 mphPartly Cloudy
Hourly data recorded from PGUM, located miles away from Yigo, Guam







STORIES FROM OUR PARTNERS